Weather History for Austin, TX

Change the Weather History Date:

Wednesday, October 16, 2013

  Actual Average Record
Temperature  
Mean Temperature 58 °F 71 °F  
Max Temperature 62 °F 82 °F 94 °F (1933)
Min Temperature 54 °F 61 °F 44 °F (1974)
Degree Days  
Heating Degree Days 7 1  
Month to date heating degree days 7 5  
Since 1 July heating degree days 7 7  
Cooling Degree Days 0 7  
Month to date cooling degree days 165 140  
Year to date cooling degree days 3337 2984  
Growing Degree Days 8 (Base 50)    
Moisture  
Dew Point 54 °F    
Average Humidity 86    
Maximum Humidity 93    
Minimum Humidity 78    
Precipitation  
Precipitation 0.84 in 0.14 in 2.16 in (1912)
Month to date precipitation 7.97 1.94  
Year to date precipitation 31.57 27.02  
Snow  
Snow 0.00 in - - ()
Month to date snowfall 0.0  
Since 1 July snowfall 0.0  
Since 1 September snowfall 0.0  
Snow Depth 0.00 in    
Sea Level Pressure  
Sea Level Pressure 30.04 in    
Wind  
Wind Speed 5 mph (NNW)    
Max Wind Speed 12 mph    
Max Gust Speed 19 mph    
Visibility 8 miles    
Events Rain    
T = Trace of Precipitation, MM = Missing Value Source: NWS Daily Summary

Daily Weather History Graph

Daily Weather History Graph

Search for Another Location

Airport:

Trip Planner

Search our weather history database for the weather conditions in past years. The results will help you decide how hot, cold, wet, or windy it might be!

Date:

Astronomy

Oct. 16, 2013 Rise Set
Actual Time 7:34 AM CDT 6:58 PM CDT
Civil Twilight 7:09 AM CDT 7:22 PM CDT
Nautical Twilight 6:41 AM CDT 7:50 PM CDT
Astronomical Twilight 6:14 AM CDT 8:18 PM CDT
Moon 5:32 PM CDT (10/16) 5:12 AM CDT (10/16)
Length of Visible Light 12h 12m
Length of Day
11h 24m
Waxing Gibbous, 94% of the Moon is Illuminated
Oct 16
Waxing Gibbous
Oct 18
Full
Oct 26
Last Quarter
Nov 3
New
Nov 9
First Quarter

Hourly Weather History & Observations

Time (CDT) Temp. Dew Point Humidity Pressure Visibility Wind Dir Wind Speed Gust Speed Precip Events Conditions
12:51 AM 59.0 °F 55.0 °F 87% 30.00 in 10.0 mi North - - 0.00 in   Overcast
1:20 AM 57.9 °F 55.0 °F 90% 30.01 in 10.0 mi NNW 4.6 mph - N/A   Overcast
1:40 AM 57.9 °F 55.0 °F 90% 30.00 in 10.0 mi North 4.6 mph - N/A   Overcast
1:51 AM 57.9 °F 55.0 °F 90% 29.98 in 10.0 mi North 4.6 mph - N/A   Overcast
2:51 AM 57.0 °F 53.1 °F 87% 30.01 in 10.0 mi NNW 5.8 mph - N/A   Overcast
3:42 AM 55.9 °F 54.0 °F 93% 30.03 in 4.0 mi North 8.1 mph - 0.01 in Rain Light Rain
3:51 AM 55.9 °F 54.0 °F 93% 30.01 in 5.0 mi North 8.1 mph - 0.01 in Rain Light Rain
4:14 AM 55.9 °F 54.0 °F 93% 30.02 in 10.0 mi Variable 5.8 mph - 0.00 in   Overcast
4:25 AM 55.9 °F 53.1 °F 90% 30.02 in 10.0 mi North 5.8 mph - 0.00 in   Overcast
4:51 AM 55.9 °F 54.0 °F 93% 29.99 in 9.0 mi North 4.6 mph - 0.00 in Rain Light Rain
5:05 AM 55.9 °F 53.1 °F 90% 30.02 in 6.0 mi Variable 5.8 mph - 0.00 in Rain Light Rain
5:13 AM 55.9 °F 54.0 °F 93% 30.02 in 5.0 mi North 5.8 mph - 0.01 in Rain Light Rain
5:51 AM 55.9 °F 54.0 °F 93% 29.98 in 4.0 mi Variable 3.5 mph - 0.06 in Rain Rain
6:06 AM 55.9 °F 53.1 °F 90% 30.00 in 4.0 mi North 8.1 mph - 0.04 in Rain Light Rain
6:34 AM 55.9 °F 53.1 °F 90% 30.03 in 1.8 mi NNW 6.9 mph - 0.10 in Rain Heavy Rain
6:51 AM 55.0 °F 53.1 °F 93% 30.04 in 1.2 mi NW 6.9 mph 16.1 mph 0.29 in Rain Heavy Rain
6:59 AM 55.0 °F 53.1 °F 93% 30.02 in 1.0 mi NNE 6.9 mph - 0.14 in Rain Heavy Rain
7:14 AM 54.0 °F 52.0 °F 93% 30.01 in 2.0 mi North 6.9 mph 18.4 mph 0.35 in Rain Heavy Rain
7:28 AM 54.0 °F 52.0 °F 93% 30.01 in 4.0 mi North 8.1 mph - 0.41 in Rain Rain
7:39 AM 54.0 °F 52.0 °F 93% 30.02 in 9.0 mi North 8.1 mph - 0.43 in Rain Light Rain
7:51 AM 55.0 °F 52.0 °F 89% 30.03 in 10.0 mi NNW 5.8 mph - 0.43 in Rain Light Rain
8:11 AM 55.0 °F 53.1 °F 93% 30.06 in 10.0 mi NW 5.8 mph - 0.00 in Rain Light Rain
8:29 AM 55.0 °F 53.1 °F 93% 30.06 in 9.0 mi NNW 6.9 mph - 0.01 in Rain Light Rain
8:51 AM 55.0 °F 52.0 °F 89% 30.06 in 8.0 mi NNW 6.9 mph - 0.03 in Rain Light Rain
9:51 AM 55.9 °F 53.1 °F 90% 30.08 in 10.0 mi NNW 9.2 mph - 0.01 in Rain Light Rain
10:51 AM 57.0 °F 54.0 °F 89% 30.09 in 10.0 mi Variable 6.9 mph - 0.00 in   Overcast
11:51 AM 57.9 °F 55.0 °F 90% 30.09 in 8.0 mi NNW 5.8 mph - 0.00 in Rain Light Rain
12:12 PM 57.9 °F 55.0 °F 90% 30.09 in 10.0 mi North 6.9 mph 18.4 mph 0.00 in   Overcast
12:27 PM 57.9 °F 55.0 °F 90% 30.09 in 10.0 mi Variable 6.9 mph - 0.00 in   Overcast
12:51 PM 57.9 °F 55.0 °F 90% 30.08 in 8.0 mi NNW 6.9 mph - 0.00 in Rain Light Rain
1:51 PM 59.0 °F 55.9 °F 90% 30.04 in 10.0 mi NNW 5.8 mph - 0.01 in   Overcast
2:51 PM 60.1 °F 55.0 °F 83% 30.03 in 10.0 mi North 9.2 mph - N/A   Overcast
3:51 PM 60.1 °F 55.0 °F 83% 30.03 in 10.0 mi North 4.6 mph - N/A   Overcast
4:51 PM 61.0 °F 55.0 °F 81% 30.02 in 10.0 mi Calm Calm - N/A   Overcast
5:51 PM 61.0 °F 55.0 °F 81% 30.01 in 10.0 mi Variable 4.6 mph - N/A   Overcast
6:29 PM 61.0 °F 55.9 °F 83% 30.03 in 10.0 mi NNW 3.5 mph - N/A   Overcast
6:51 PM 61.0 °F 55.0 °F 81% 30.03 in 10.0 mi NNW 4.6 mph - N/A   Overcast
7:51 PM 61.0 °F 55.9 °F 83% 30.04 in 10.0 mi NNW 3.5 mph - N/A   Overcast
8:23 PM 61.0 °F 55.9 °F 83% 30.06 in 10.0 mi North 3.5 mph - N/A   Overcast
8:51 PM 61.0 °F 55.9 °F 83% 30.06 in 10.0 mi Calm Calm - N/A   Overcast
9:51 PM 62.1 °F 55.9 °F 80% 30.08 in 10.0 mi Calm Calm - N/A   Overcast
10:51 PM 62.1 °F 55.9 °F 80% 30.08 in 10.0 mi Calm Calm - N/A   Overcast
11:51 PM 61.0 °F 53.1 °F 75% 30.09 in 10.0 mi NNW 3.5 mph - N/A   Mostly Cloudy